Tracking 19242 objects as of 15-Aug-2018
HD Live streaming from Space Station
objects crossing your sky now

NIMBUS 5

Track NIMBUS 5 now!
10-day predictions
NIMBUS 5 is classified as:


NORAD ID: 6305
Int'l Code: 1972-097A
Perigee: 1,095.3 km
Apogee: 1,106.9 km
Inclination: 100.0 °
Period: 107.1 minutes
Semi major axis: 7472 km
RCS: 3.4528 m2 (large)
Launch date: December 11, 1972
Source: United States (US)
Launch site: AIR FORCE WESTERN TEST RANGE (AFWTR)
aabbcc
Your satellite tracking list
Your tracking list is empty




NASA's NSSDC Master Catalog

Two Line Element Set (TLE):
1  6305U 72097A   18226.71689444 -.00000025 +00000-0 +34812-4 0  9991
2  6305 099.9693 131.9274 0007797 299.5100 114.1570 13.44121715240020
Source of the keplerian elements: AFSPC